EA3RCF Weather Reports


time (UTC)temp
C
wind
direction
speed
KPH
gust
KPH
rain 1hr
cm
rain 24hr
cm
rain mn
cm
humidity
%
barometer
mb
20260504190830 13 280 0.0 3.2 0.00 2.39 0.48 94 1011.2
20260504190339 13 280 1.6 3.2 0.00 2.39 0.48 94 1011.1
20260504185818 14 307 0.0 1.6 0.00 2.39 0.48 94 1011.0
20260504185319 14 327 0.0 1.6 0.00 2.39 0.48 94 1010.9
20260504184828 14 328 0.0 4.8 0.00 2.39 0.48 94 1010.8
20260504184330 14 328 0.0 4.8 0.00 2.39 0.48 94 1010.8
20260504183839 14 328 0.0 3.2 0.00 2.39 0.48 94 1010.7
20260504183321 14 333 1.6 4.8 0.00 2.39 0.48 94 1010.7
20260504182822 14 293 3.2 4.8 0.00 2.39 0.48 94 1010.8
20260504182330 15 26 0.0 3.2 0.00 2.39 0.48 94 1010.8
20260504181832 15 26 1.6 3.2 0.00 2.39 0.48 94 1010.7
20260504181315 15 347 1.6 3.2 0.00 2.39 0.48 94 1010.7
20260504180823 15 17 1.6 1.6 0.00 2.39 0.48 94 1010.7
20260504180325 15 75 0.0 1.6 0.00 2.39 0.48 94 1010.8
20260504175827 15 75 1.6 3.2 0.00 2.59 0.48 94 1010.8
20260504175316 15 75 0.0 1.6 0.00 2.59 0.48 94 1010.7
20260504174816 15 74 1.6 1.6 0.00 2.59 0.48 94 1010.7
20260504174316 15 20 0.0 0.0 0.00 2.59 0.48 94 1010.8
20260504173825 15 21 0.0 0.0 0.00 2.59 0.48 94 1010.8
20260504173327 15 21 0.0 0.0 0.00 2.59 0.48 94 1010.8
20260504172818 15 21 0.0 1.6 0.00 2.59 0.48 94 1010.7
20260504172319 15 20 1.6 1.6 0.00 2.59 0.48 94 1010.8
20260504171829 15 20 0.0 1.6 0.00 2.59 0.48 94 1010.9
20260504171330 15 20 0.0 1.6 0.00 2.59 0.48 94 1010.9
20260504170839 15 20 0.0 1.6 0.00 2.59 0.48 94 1010.9
20260504170321 15 20 0.0 1.6 0.00 2.59 0.48 94 1011.0
20260504160324 14 59 1.6 1.6 0.71 2.90 0.48 94 1011.3
20260504150825 13 280 0.0 6.4 0.41 2.31 0.36 94 1011.7
20260504150326 14 276 1.6 6.4 0.30 2.21 0.33 94 1011.7
20260504141317 14 128 0.0 4.8 1.40 1.91 0.28 94 1011.3
20260504140826 14 128 3.2 4.8 1.40 1.91 0.28 94 1011.2
20260504140335 14 136 1.6 6.4 1.40 1.91 0.28 94 1011.4
20260504130820 18 319 3.2 14.5 0.00 0.51 0.00 76 1011.2
20260504130319 18 101 6.4 17.7 0.00 0.51 0.00 76 1011.0
20260504110320 20 210 1.6 3.2 0.00 0.51 0.00 62 1012.3
20260504100320 20 153 1.6 4.8 0.00 0.51 0.00 62 1012.6
20260504081837 16 79 1.6 3.2 0.00 0.51 0.00 87 1012.4
20260504081319 16 83 1.6 3.2 0.00 0.51 0.00 93 1012.5
20260504080821 16 67 1.6 1.6 0.00 0.51 0.00 95 1012.5
20260504080330 16 210 0.0 1.6 0.00 0.51 0.00 95 1012.5
20260504070330 16 207 0.0 4.8 0.00 0.51 0.00 95 1012.9
20260504050332 11 253 0.0 1.6 0.00 0.51 0.00 94 1013.0
20260504045832 11 255 0.0 1.6 0.00 0.51 0.00 94 1013.1
20260504045314 11 255 0.0 1.6 0.00 0.51 0.00 94 1013.1
20260504044823 11 252 1.6 3.2 0.00 0.51 0.00 94 1013.2
20260504044332 11 245 1.6 4.8 0.00 0.51 0.00 94 1013.1
20260504043830 11 242 1.6 4.8 0.00 0.51 0.00 94 1013.1
20260504043319 11 250 1.6 3.2 0.00 0.51 0.00 94 1013.1
20260504042821 11 245 1.6 4.8 0.00 0.51 0.00 94 1013.3
20260504042329 11 248 3.2 4.8 0.00 0.51 0.00 94 1013.2
20260504041829 11 249 1.6 3.2 0.00 0.51 0.00 94 1013.3
20260504041315 11 260 1.6 3.2 0.00 0.51 0.00 94 1013.3
20260504040820 11 270 1.6 3.2 0.00 0.51 0.00 94 1013.3
20260504040322 11 266 1.6 3.2 0.00 0.51 0.00 94 1013.3
20260504035831 11 235 0.0 1.6 0.00 0.51 0.00 94 1013.3
20260504035333 11 235 0.0 3.2 0.00 0.51 0.00 94 1013.2
20260504034814 11 276 1.6 3.2 0.00 0.51 0.00 94 1013.3
20260504034323 11 211 0.0 3.2 0.00 0.51 0.00 94 1013.3
20260504033823 11 239 0.0 3.2 0.00 0.51 0.00 94 1013.4
20260504033332 11 239 1.6 3.2 0.00 0.51 0.00 94 1013.5
20260504032814 11 255 1.6 3.2 0.00 0.51 0.00 94 1013.5
20260504032316 11 267 1.6 1.6 0.00 0.51 0.00 94 1013.5
20260504031824 11 162 1.6 1.6 0.00 0.51 0.00 94 1013.4
20260504031326 11 162 0.0 1.6 0.00 0.51 0.00 94 1013.2
20260504030836 11 162 0.0 1.6 0.00 0.51 0.00 94 1013.3
20260504030317 11 162 0.0 1.6 0.00 0.51 0.00 94 1013.4
20260504025833 11 229 0.0 3.2 0.00 0.51 0.00 94 1013.4
20260504025314 11 229 1.6 4.8 0.00 0.51 0.00 94 1013.5
20260504024827 11 236 3.2 4.8 0.00 0.51 0.00 94 1013.5
20260504024329 11 246 1.6 4.8 0.00 0.51 0.00 94 1013.4
20260504023838 11 242 1.6 3.2 0.00 0.51 0.00 94 1013.3
20260504023320 11 200 1.6 1.6 0.00 0.51 0.00 94 1013.3
20260504022821 11 177 0.0 3.2 0.00 0.51 0.00 94 1013.5
20260504022331 12 128 0.0 4.8 0.00 0.51 0.00 94 1013.4
20260504021833 12 120 3.2 4.8 0.00 0.51 0.00 94 1013.4
20260504021340 12 113 3.2 3.2 0.00 0.51 0.00 94 1013.4
20260504020818 12 145 1.6 1.6 0.00 0.51 0.00 94 1013.4
20260504020325 11 145 0.0 0.0 0.00 0.51 0.00 94 1013.4
20260504015825 11 146 0.0 1.6 0.00 0.51 0.00 94 1013.5
20260504015314 11 146 0.0 1.6 0.00 0.51 0.00 94 1013.7
20260504014815 11 145 0.0 1.6 0.00 0.51 0.00 94 1013.7
20260504014324 11 146 0.0 1.6 0.00 0.51 0.00 94 1013.8
20260504013825 12 146 0.0 1.6 0.00 0.51 0.00 94 1013.7
20260504013327 11 145 0.0 1.6 0.00 0.51 0.00 94 1013.8
20260504012815 11 145 0.0 1.6 0.00 0.51 0.00 94 1013.8
20260504012318 11 145 0.0 1.6 0.00 0.51 0.00 94 1013.9
20260504011819 12 145 0.0 1.6 0.00 0.51 0.00 94 1013.9
20260504011328 12 146 1.6 3.2 0.00 0.51 0.00 94 1013.9
20260504010831 12 229 1.6 3.2 0.00 0.51 0.00 94 1014.0
20260504010319 12 271 1.6 3.2 0.00 0.51 0.00 94 1014.1
20260504005817 12 219 1.6 4.8 0.00 0.51 0.00 94 1014.2
20260504005319 12 226 0.0 3.2 0.00 0.51 0.00 94 1014.2
20260504004829 12 226 1.6 3.2 0.00 0.51 0.00 94 1014.2
20260504004330 12 220 1.6 3.2 0.00 0.51 0.00 94 1014.2
20260504003900 12 263 1.6 4.8 0.00 0.51 0.00 94 1014.2
20260504003324 12 264 1.6 4.8 0.00 0.51 0.00 94 1014.1
20260504002827 12 245 1.6 8.0 0.00 0.51 0.00 94 1014.1
20260504002336 12 226 1.6 6.4 0.00 0.51 0.00 94 1014.2
20260504001816 12 245 1.6 8.0 0.00 0.51 0.00 94 1014.3
20260504001318 12 257 3.2 8.0 0.00 0.51 0.00 94 1014.3
20260504000824 12 245 1.6 8.0 0.00 0.51 0.00 94 1014.4
20260504000327 12 260 1.6 4.8 0.00 0.51 0.00 94 1014.4
20260503235836 12 225 3.2 6.4 0.00 0.51 0.00 94 1014.4
20260503235318 12 203 3.2 6.4 0.00 0.51 0.00 94 1014.5
20260503234827 12 181 1.6 4.8 0.00 0.51 0.00 94 1014.5
20260503234335 12 228 3.2 4.8 0.00 0.51 0.00 94 1014.5
20260503233818 12 207 1.6 8.0 0.00 0.51 0.00 94 1014.6
20260503233328 12 236 1.6 8.0 0.00 0.51 0.00 94 1014.8
20260503232833 12 301 3.2 6.4 0.00 0.51 0.00 94 1014.8
20260503232315 12 218 3.2 6.4 0.00 0.51 0.00 94 1014.8
20260503231817 12 215 1.6 3.2 0.00 0.51 0.00 94 1014.9
20260503231326 12 200 0.0 3.2 0.00 0.51 0.00 94 1015.0
20260503230828 12 222 1.6 1.6 0.00 0.51 0.00 94 1015.1
20260503230337 12 222 0.0 0.0 0.00 0.51 0.00 94 1015.1
20260503225819 12 221 0.0 1.6 0.00 0.51 0.00 94 1015.2
20260503225321 12 222 0.0 1.6 0.00 0.51 0.00 94 1015.3
20260503224911 12 222 0.0 1.6 0.00 0.51 0.00 94 1015.3
20260503224335 12 221 0.0 1.6 0.00 0.51 0.00 94 1015.3
20260503223815 12 222 0.0 1.6 0.00 0.51 0.00 94 1015.4
20260503223317 12 222 0.0 1.6 0.00 0.51 0.00 94 1015.4
20260503222825 12 222 0.0 1.6 0.00 0.51 0.00 94 1015.5
20260503222327 12 222 0.0 1.6 0.00 0.51 0.00 94 1015.5
20260503221835 12 221 0.0 3.2 0.00 0.51 0.00 94 1015.6
20260503221317 12 208 0.0 1.6 0.00 0.51 0.00 94 1015.7
20260503220817 12 208 0.0 1.6 0.00 0.51 0.00 94 1015.7
20260503220326 12 208 0.0 1.6 0.00 0.51 0.00 94 1015.6
20260503215828 12 208 0.0 3.2 0.00 0.51 0.10 94 1015.6
20260503215336 12 208 1.6 3.2 0.00 0.51 0.10 94 1015.6
20260503214834 12 256 0.0 1.6 0.00 0.51 0.10 94 1015.6
20260503214315 12 260 0.0 3.2 0.00 0.51 0.10 94 1015.6
20260503213822 12 236 0.0 1.6 0.00 0.51 0.10 94 1015.6
20260503213331 12 236 0.0 1.6 0.00 0.51 0.10 94 1015.4
20260503212840 12 238 0.0 0.0 0.00 0.51 0.10 94 1015.5
20260503212321 12 236 0.0 1.6 0.00 0.51 0.10 94 1015.6
20260503211822 12 236 1.6 1.6 0.00 0.51 0.10 94 1015.6
20260503211332 12 236 0.0 1.6 0.00 0.51 0.10 94 1015.7
20260503210831 12 236 0.0 1.6 0.00 0.51 0.10 94 1015.8
20260503210342 12 236 0.0 1.6 0.00 0.51 0.10 94 1015.9
20260503205329 12 236 0.0 1.6 0.00 0.51 0.10 94 1015.7
20260503204830 12 236 0.0 1.6 0.00 0.51 0.10 94 1015.8
20260503204322 12 238 0.0 1.6 0.00 0.51 0.10 94 1015.8
20260503203820 12 238 0.0 1.6 0.00 0.51 0.10 94 1015.7
20260503203328 12 236 0.0 1.6 0.00 0.51 0.10 94 1015.7
20260503202828 12 236 0.0 1.6 0.00 0.51 0.10 94 1015.6
20260503202329 12 236 0.0 1.6 0.00 0.51 0.10 94 1015.6
20260503201818 12 236 1.6 1.6 0.00 0.51 0.10 94 1015.6
20260503201319 12 212 0.0 1.6 0.00 0.51 0.10 94 1015.6
20260503200819 12 212 0.0 1.6 0.00 0.51 0.10 94 1015.5
20260503200328 12 212 0.0 1.6 0.00 0.51 0.10 94 1015.4
20260503195829 12 212 0.0 1.6 0.00 0.51 0.10 94 1015.4
20260503195319 12 224 0.0 1.6 0.00 0.51 0.10 94 1015.4
20260503194816 12 236 0.0 3.2 0.00 0.51 0.10 94 1015.4
20260503194317 12 226 0.0 4.8 0.00 0.51 0.10 94 1015.3
20260503193824 12 203 1.6 4.8 0.00 0.51 0.10 94 1015.2
20260503193325 12 251 1.6 4.8 0.00 0.51 0.10 94 1015.1
20260503192833 12 245 0.0 3.2 0.00 0.51 0.10 94 1015.1
20260503192316 12 269 1.6 3.2 0.00 0.51 0.10 94 1015.0
20260503191817 12 238 1.6 3.2 0.00 0.51 0.10 94 1014.9
20260503191325 12 225 1.6 1.6 0.00 0.51 0.10 94 1014.8